TimeCDT,TemperatureF,Dew PointF,Humidity,Sea Level PressureIn,VisibilityMPH,Wind Direction,Wind SpeedMPH,Gust SpeedMPH,PrecipitationIn,Events,Conditions,WindDirDegrees,DateUTC
12:15 AM,39.2,39.2,100,30.22,4.0,Calm,Calm,-,N/A,,Clear,0,2013-03-30 05:15:00
12:35 AM,39.2,39.2,100,30.22,2.5,Calm,Calm,-,N/A,,Clear,0,2013-03-30 05:35:00
12:55 AM,39.2,39.2,100,30.22,2.0,Calm,Calm,-,N/A,,Clear,0,2013-03-30 05:55:00
1:15 AM,37.4,37.4,100,30.22,2.0,Calm,Calm,-,N/A,,Clear,0,2013-03-30 06:15:00
1:35 AM,37.4,37.4,100,30.22,1.2,Calm,Calm,-,N/A,,Mist,0,2013-03-30 06:35:00
1:55 AM,39.2,39.2,100,30.21,1.2,Calm,Calm,-,N/A,,Mist,0,2013-03-30 06:55:00
2:15 AM,37.4,37.4,100,30.21,0.2,Calm,Calm,-,N/A,Fog,Fog,0,2013-03-30 07:15:00
2:35 AM,37.4,37.4,100,30.20,0.2,Calm,Calm,-,N/A,Fog,Fog,0,2013-03-30 07:35:00
2:55 AM,37.4,37.4,100,30.20,0.2,Calm,Calm,-,N/A,Fog,Fog,0,2013-03-30 07:55:00
3:15 AM,37.4,37.4,100,30.20,0.2,Calm,Calm,-,N/A,Fog,Fog,0,2013-03-30 08:15:00
3:35 AM,35.6,35.6,100,30.20,0.2,Calm,Calm,-,N/A,Fog,Fog,0,2013-03-30 08:35:00
3:55 AM,35.6,35.6,100,30.20,0.2,Calm,Calm,-,N/A,Fog,Fog,0,2013-03-30 08:55:00
4:15 AM,35.6,35.6,100,30.20,0.2,Calm,Calm,-,N/A,Fog,Fog,0,2013-03-30 09:15:00
4:35 AM,35.6,35.6,100,30.20,0.2,Calm,Calm,-,N/A,Fog,Fog,0,2013-03-30 09:35:00
4:55 AM,35.6,35.6,100,30.20,0.2,Calm,Calm,-,N/A,Fog,Fog,0,2013-03-30 09:55:00
5:15 AM,35.6,35.6,100,30.20,0.2,Calm,Calm,-,N/A,Fog,Fog,0,2013-03-30 10:15:00
5:35 AM,35.6,35.6,100,30.20,0.2,Calm,Calm,-,N/A,Fog,Fog,0,2013-03-30 10:35:00
5:55 AM,33.8,33.8,100,30.19,0.2,Calm,Calm,-,N/A,Fog,Fog,0,2013-03-30 10:55:00
6:15 AM,35.6,35.6,100,30.19,0.2,Calm,Calm,-,N/A,Rain,Light Rain,0,2013-03-30 11:15:00
6:35 AM,35.6,35.6,100,30.19,0.2,Calm,Calm,-,N/A,,Light Drizzle,0,2013-03-30 11:35:00
6:55 AM,35.6,35.6,100,30.20,0.2,Calm,Calm,-,N/A,Rain,Light Rain,0,2013-03-30 11:55:00
7:15 AM,37.4,37.4,100,30.19,0.2,Calm,Calm,-,N/A,Rain,Light Rain,0,2013-03-30 12:15:00
7:35 AM,37.4,37.4,100,30.20,0.2,Calm,Calm,-,N/A,Rain,Light Rain,0,2013-03-30 12:35:00
7:55 AM,39.2,39.2,100,30.19,0.2,ESE,3.5,-,N/A,,Light Drizzle,120,2013-03-30 12:55:00
8:15 AM,39.2,39.2,100,30.19,0.2,East,3.5,-,N/A,,Light Drizzle,90,2013-03-30 13:15:00
8:35 AM,41.0,41.0,100,30.19,0.2,ESE,5.8,-,N/A,Rain,Light Rain,110,2013-03-30 13:35:00
8:55 AM,42.8,42.8,100,30.19,0.2,SE,6.9,-,N/A,,Drizzle,140,2013-03-30 13:55:00
9:15 AM,44.6,44.6,100,30.19,0.2,SE,4.6,-,N/A,Fog,Fog,140,2013-03-30 14:15:00
9:35 AM,44.6,44.6,100,30.18,0.2,SE,5.8,-,N/A,Fog,Fog,130,2013-03-30 14:35:00
9:55 AM,44.6,44.6,100,30.16,0.5,SE,6.9,-,N/A,Fog,Fog,130,2013-03-30 14:55:00
10:15 AM,46.4,46.4,100,30.16,1.8,SE,6.9,-,N/A,,Overcast,130,2013-03-30 15:15:00
10:35 AM,46.4,46.4,100,30.16,3.0,SE,6.9,-,N/A,,Overcast,140,2013-03-30 15:35:00
10:55 AM,48.2,48.2,100,30.16,5.0,SSE,5.8,-,N/A,,Overcast,150,2013-03-30 15:55:00
11:15 AM,50.0,46.4,87,30.15,7.0,SSE,8.1,-,N/A,,Mostly Cloudy,150,2013-03-30 16:15:00
11:35 AM,51.8,46.4,82,30.15,7.0,SSE,8.1,-,N/A,,Mostly Cloudy,160,2013-03-30 16:35:00
11:55 AM,53.6,46.4,77,30.14,10.0,SE,12.7,-,N/A,,Scattered Clouds,140,2013-03-30 16:55:00
12:15 PM,53.6,46.4,77,30.13,10.0,SSE,10.4,-,N/A,,Scattered Clouds,150,2013-03-30 17:15:00
12:35 PM,53.6,46.4,77,30.12,10.0,SE,11.5,-,N/A,,Scattered Clouds,140,2013-03-30 17:35:00
12:55 PM,53.6,46.4,77,30.11,10.0,SSE,9.2,16.1,N/A,,Scattered Clouds,160,2013-03-30 17:55:00
1:15 PM,57.2,46.4,67,30.10,10.0,SE,9.2,-,N/A,,Clear,140,2013-03-30 18:15:00
1:35 PM,57.2,44.6,63,30.08,10.0,South,9.2,-,N/A,,Clear,170,2013-03-30 18:35:00
1:55 PM,57.2,44.6,63,30.07,10.0,SSE,10.4,-,N/A,,Clear,160,2013-03-30 18:55:00
2:15 PM,57.2,44.6,63,30.06,10.0,ESE,9.2,-,N/A,,Scattered Clouds,120,2013-03-30 19:15:00
2:35 PM,60.8,44.6,55,30.04,10.0,South,11.5,-,N/A,,Scattered Clouds,170,2013-03-30 19:35:00
2:55 PM,60.8,42.8,52,30.03,10.0,SE,13.8,18.4,N/A,,Scattered Clouds,130,2013-03-30 19:55:00
3:15 PM,60.8,41.0,48,30.03,10.0,SSE,11.5,-,N/A,,Clear,150,2013-03-30 20:15:00
3:35 PM,59.0,39.2,48,30.01,10.0,SE,9.2,16.1,N/A,,Clear,140,2013-03-30 20:35:00
3:55 PM,57.2,39.2,51,30.00,10.0,SSE,11.5,-,N/A,,Clear,160,2013-03-30 20:55:00
4:15 PM,57.2,39.2,51,30.00,10.0,SSE,8.1,-,N/A,,Clear,150,2013-03-30 21:15:00
4:35 PM,57.2,41.0,55,29.99,10.0,SSE,10.4,-,N/A,,Clear,150,2013-03-30 21:35:00
4:55 PM,57.2,42.8,59,29.99,10.0,SE,10.4,-,N/A,,Clear,140,2013-03-30 21:55:00
5:15 PM,57.2,42.8,59,29.98,10.0,South,5.8,-,N/A,,Clear,170,2013-03-30 22:15:00
5:35 PM,57.2,42.8,59,29.98,10.0,South,6.9,-,N/A,,Clear,180,2013-03-30 22:35:00
5:55 PM,55.4,42.8,63,29.98,10.0,South,4.6,-,N/A,,Scattered Clouds,170,2013-03-30 22:55:00
6:15 PM,55.4,44.6,67,29.98,10.0,South,8.1,-,N/A,,Clear,180,2013-03-30 23:15:00
6:35 PM,55.4,44.6,67,29.97,10.0,South,9.2,-,N/A,,Clear,180,2013-03-30 23:35:00
6:55 PM,53.6,44.6,72,29.96,10.0,South,6.9,-,N/A,,Clear,180,2013-03-30 23:55:00
7:15 PM,53.6,44.6,72,29.95,10.0,South,4.6,-,N/A,,Clear,180,2013-03-31 00:15:00
7:35 PM,53.6,44.6,72,29.95,10.0,South,4.6,-,N/A,,Mostly Cloudy,190,2013-03-31 00:35:00
7:55 PM,53.6,44.6,72,29.95,10.0,South,4.6,-,N/A,,Overcast,180,2013-03-31 00:55:00
8:15 PM,53.6,44.6,72,29.95,10.0,South,4.6,-,N/A,Rain,Light Rain,190,2013-03-31 01:15:00
8:35 PM,51.8,44.6,76,29.95,10.0,South,4.6,-,N/A,,Light Drizzle,190,2013-03-31 01:35:00
8:55 PM,51.8,46.4,82,29.95,10.0,SSW,4.6,-,N/A,Rain,Light Rain,200,2013-03-31 01:55:00
9:15 PM,48.2,46.4,93,29.95,7.0,SSW,4.6,-,N/A,Rain,Rain,200,2013-03-31 02:15:00
9:35 PM,48.2,46.4,93,29.95,7.0,Calm,Calm,-,0.01,Rain,Light Rain,0,2013-03-31 02:35:00
9:55 PM,48.2,46.4,93,29.95,7.0,Calm,Calm,-,N/A,Rain,Rain,0,2013-03-31 02:55:00
10:15 PM,48.2,46.4,93,29.95,5.0,Calm,Calm,-,N/A,Rain,Light Rain,0,2013-03-31 03:15:00
10:35 PM,48.2,48.2,100,29.94,5.0,Calm,Calm,-,N/A,Rain,Light Rain,0,2013-03-31 03:35:00
10:55 PM,48.2,48.2,100,29.94,4.0,Calm,Calm,-,N/A,Rain,Light Rain,0,2013-03-31 03:55:00
11:15 PM,48.2,48.2,100,29.93,4.0,Calm,Calm,-,N/A,Rain,Rain,0,2013-03-31 04:15:00
11:35 PM,48.2,48.2,100,29.91,4.0,Calm,Calm,-,0.01,Rain,Light Rain,0,2013-03-31 04:35:00
11:55 PM,48.2,48.2,100,29.91,5.0,Calm,Calm,-,N/A,,Overcast,0,2013-03-31 04:55:00